• In Hungary
  • List of Countries
  • For 7 days
  • Water Temperature
  • Satellite Maps
  • Weather Map
  • News
  • Weather Widgets
  • user-avatar
    Login

    Hourly Weather Bobovische

    Today, 19 April, Thursday

    Time Temperature Precipitation Wind Pressure Humidity
    00:00 +6°C° 0.4 mm 4 mps 736 mmHg 94%
    01:00 +6°C° 0.4 mm 4 mps 736 mmHg 94%
    02:00 +7°C° 0 mm 3 mps 736 mmHg 94%
    03:00 +5°C° 0.5 mm 3 mps 736 mmHg 94%
    04:00 +5°C° 0.5 mm 4 mps 736 mmHg 94%
    05:00 +5°C° 0.5 mm 4 mps 736 mmHg 94%
    06:00 +5°C° 0.6 mm 4 mps 736 mmHg 94%
    07:00 +5°C° 0.6 mm 4 mps 736 mmHg 94%
    08:00 +5°C° 0.6 mm 4 mps 736 mmHg 93%
    09:00 +5°C° 0.4 mm 4 mps 736 mmHg 93%
    10:00 +5°C° 0.4 mm 4 mps 737 mmHg 92%
    11:00 +6°C° 0.4 mm 4 mps 737 mmHg 91%
    12:00 +7°C° 0.1 mm 4 mps 737 mmHg 87%
    13:00 +7°C° 0.1 mm 4 mps 737 mmHg 84%
    14:00 +8°C° 0.1 mm 4 mps 737 mmHg 81%
    15:00 +10°C° 0 mm 4 mps 738 mmHg 76%
    16:00 +11°C° 0 mm 4 mps 738 mmHg 72%
    17:00 +11°C° 0 mm 4 mps 738 mmHg 68%
    18:00 +10°C° 0 mm 4 mps 738 mmHg 71%
    19:00 +9°C° 0 mm 3 mps 739 mmHg 75%
    20:00 +7°C° 0 mm 3 mps 739 mmHg 79%
    21:00 +7°C° 0 mm 3 mps 739 mmHg 82%
    22:00 +5°C° 0 mm 3 mps 740 mmHg 85%
    23:00 +5°C° 0 mm 3 mps 740 mmHg 88%

    Tomorrow, 20 April, Friday

    Time Temperature Precipitation Wind Pressure Humidity
    00:00 +4°C° 0 mm 3 mps 740 mmHg 90%
    01:00 +4°C° 0 mm 3 mps 741 mmHg 93%
    02:00 +3°C° 0 mm 3 mps 741 mmHg 95%
    03:00 +3°C° 0 mm 3 mps 741 mmHg 95%
    04:00 +3°C° 0 mm 3 mps 741 mmHg 95%
    05:00 +3°C° 0 mm 3 mps 741 mmHg 95%
    06:00 +4°C° 0 mm 3 mps 741 mmHg 92%
    07:00 +4°C° 0 mm 3 mps 742 mmHg 89%
    08:00 +5°C° 0 mm 3 mps 742 mmHg 85%
    09:00 +7°C° 0 mm 3 mps 742 mmHg 78%
    10:00 +9°C° 0 mm 2 mps 742 mmHg 71%
    11:00 +10°C° 0 mm 2 mps 742 mmHg 64%
    12:00 +12°C° 0 mm 2 mps 742 mmHg 62%
    13:00 +12°C° 0 mm 2 mps 742 mmHg 60%
    14:00 +12°C° 0 mm 2 mps 741 mmHg 58%
    15:00 +12°C° 0 mm 2 mps 741 mmHg 60%
    16:00 +11°C° 0 mm 3 mps 740 mmHg 61%
    17:00 +11°C° 0 mm 3 mps 740 mmHg 62%
    18:00 +10°C° 0 mm 3 mps 739 mmHg 68%
    19:00 +9°C° 0 mm 2 mps 738 mmHg 75%
    20:00 +8°C° 0 mm 2 mps 738 mmHg 81%
    21:00 +8°C° 0 mm 3 mps 737 mmHg 79%
    22:00 +8°C° 0 mm 3 mps 736 mmHg 78%
    23:00 +8°C° 0 mm 4 mps 735 mmHg 77%

    Day after tomorrow, 21 April, Saturday

    Time Temperature Precipitation Wind Pressure Humidity
    00:00 +8°C° 0 mm 4 mps 734 mmHg 79%
    01:00 +8°C° 0 mm 4 mps 733 mmHg 82%
    02:00 +8°C° 0 mm 4 mps 732 mmHg 85%
    03:00 +8°C° 0 mm 5 mps 731 mmHg 87%
    04:00 +8°C° 0 mm 5 mps 730 mmHg 88%
    05:00 +8°C° 0 mm 5 mps 729 mmHg 90%
    06:00 +8°C° 0.3 mm 5 mps 728 mmHg 87%
    07:00 +9°C° 0.3 mm 6 mps 727 mmHg 84%
    08:00 +10°C° 0.3 mm 6 mps 726 mmHg 81%
    09:00 +10°C° 0.3 mm 6 mps 726 mmHg 82%
    10:00 +10°C° 0.3 mm 7 mps 725 mmHg 82%
    11:00 +10°C° 0.3 mm 7 mps 724 mmHg 83%
    12:00 +9°C° 0.2 mm 7 mps 724 mmHg 78%
    13:00 +9°C° 0.2 mm 8 mps 725 mmHg 74%
    14:00 +7°C° 0.2 mm 8 mps 725 mmHg 69%
    15:00 +7°C° 0.1 mm 8 mps 725 mmHg 67%
    16:00 +8°C° 0.1 mm 7 mps 726 mmHg 65%
    17:00 +8°C° 0.1 mm 7 mps 726 mmHg 63%
    18:00 +7°C° 0.1 mm 6 mps 727 mmHg 68%
    19:00 +6°C° 0.1 mm 5 mps 727 mmHg 74%
    20:00 +5°C° 0.1 mm 5 mps 728 mmHg 79%
    21:00 +5°C° 0.1 mm 4 mps 728 mmHg 81%
    22:00 +4°C° 0.1 mm 4 mps 728 mmHg 82%
    23:00 +4°C° 0.1 mm 4 mps 729 mmHg 84%

    22 April, Sunday

    Time Temperature Precipitation Wind Pressure Humidity
    00:00 +4°C° 0.1 mm 4 mps 729 mmHg 85%
    01:00 +3°C° 0.1 mm 4 mps 729 mmHg 86%
    02:00 +3°C° 0.1 mm 4 mps 729 mmHg 87%
    03:00 +3°C° 0.1 mm 4 mps 730 mmHg 88%
    04:00 +2°C° 0.1 mm 3 mps 730 mmHg 89%
    05:00 +2°C° 0.1 mm 3 mps 730 mmHg 90%
    06:00 +2°C° 0.2 mm 3 mps 730 mmHg 86%
    07:00 +3°C° 0.2 mm 3 mps 730 mmHg 83%
    08:00 +3°C° 0.2 mm 3 mps 731 mmHg 79%
    09:00 +4°C° 0.2 mm 3 mps 731 mmHg 76%
    10:00 +5°C° 0.2 mm 3 mps 731 mmHg 74%
    11:00 +5°C° 0.2 mm 3 mps 731 mmHg 71%
    12:00 +5°C° 0.2 mm 3 mps 731 mmHg 72%
    13:00 +7°C° 0.2 mm 3 mps 731 mmHg 72%
    14:00 +7°C° 0.2 mm 3 mps 732 mmHg 72%
    15:00 +7°C° 0.1 mm 3 mps 732 mmHg 71%
    16:00 +5°C° 0.1 mm 3 mps 732 mmHg 71%
    17:00 +5°C° 0.1 mm 3 mps 732 mmHg 70%
    18:00 +5°C° 0 mm 2 mps 733 mmHg 74%
    19:00 +4°C° 0 mm 2 mps 733 mmHg 78%
    20:00 +3°C° 0 mm 2 mps 733 mmHg 82%
    21:00 +3°C° 0 mm 1 mps 734 mmHg 82%
    22:00 +3°C° 0 mm 1 mps 734 mmHg 83%
    23:00 +2°C° 0 mm 1 mps 734 mmHg 84%

    23 April, Monday

    Time Temperature Precipitation Wind Pressure Humidity
    00:00 +1°C° 0 mm 1 mps 735 mmHg 83%
    01:00 +1°C° 0 mm 1 mps 735 mmHg 83%
    02:00 0°C° 0 mm 1 mps 735 mmHg 82%
    03:00 0°C° 0 mm 1 mps 735 mmHg 81%
    04:00 0°C° 0 mm 1 mps 736 mmHg 81%
    05:00 0°C° 0 mm 1 mps 736 mmHg 80%
    06:00 +2°C° 0 mm 1 mps 736 mmHg 71%
    07:00 +3°C° 0 mm 1 mps 737 mmHg 62%
    08:00 +5°C° 0 mm 1 mps 737 mmHg 54%
    09:00 +7°C° 0 mm 1 mps 737 mmHg 48%
    10:00 +8°C° 0 mm 1 mps 737 mmHg 43%
    11:00 +9°C° 0 mm 0 mps 737 mmHg 38%
    12:00 +9°C° 0 mm 0 mps 737 mmHg 37%
    13:00 +11°C° 0 mm 1 mps 737 mmHg 35%
    14:00 +11°C° 0 mm 1 mps 736 mmHg 34%
    15:00 +11°C° 0 mm 1 mps 736 mmHg 34%
    16:00 +10°C° 0 mm 1 mps 736 mmHg 35%
    17:00 +9°C° 0 mm 0 mps 736 mmHg 36%
    18:00 +8°C° 0 mm 1 mps 736 mmHg 42%
    19:00 +6°C° 0 mm 1 mps 735 mmHg 48%
    20:00 +4°C° 0 mm 1 mps 735 mmHg 53%
    21:00 +4°C° 0 mm 1 mps 735 mmHg 56%
    22:00 +3°C° 0 mm 1 mps 735 mmHg 59%
    23:00 +2°C° 0 mm 2 mps 735 mmHg 62%

    24 April, Tuesday

    Time Temperature Precipitation Wind Pressure Humidity
    00:00 +1°C° 0 mm 2 mps 735 mmHg 65%
    01:00 +1°C° 0 mm 2 mps 735 mmHg 67%
    02:00 +1°C° 0 mm 2 mps 734 mmHg 70%
    03:00 +1°C° 0 mm 2 mps 734 mmHg 72%
    04:00 +1°C° 0 mm 2 mps 734 mmHg 74%
    05:00 +1°C° 0 mm 2 mps 733 mmHg 76%
    06:00 +2°C° 0 mm 3 mps 733 mmHg 71%
    07:00 +3°C° 0 mm 3 mps 733 mmHg 66%
    08:00 +5°C° 0 mm 3 mps 733 mmHg 62%
    09:00 +6°C° 0.1 mm 4 mps 732 mmHg 60%
    10:00 +7°C° 0.1 mm 4 mps 732 mmHg 58%
    11:00 +9°C° 0.1 mm 5 mps 732 mmHg 56%
    12:00 +9°C° 0.2 mm 5 mps 731 mmHg 59%
    13:00 +10°C° 0.2 mm 4 mps 731 mmHg 61%
    14:00 +10°C° 0.2 mm 4 mps 731 mmHg 64%
    15:00 +8°C° 0.3 mm 4 mps 730 mmHg 70%
    16:00 +7°C° 0.3 mm 4 mps 730 mmHg 75%
    17:00 +7°C° 0.3 mm 3 mps 730 mmHg 81%
    18:00 +7°C° 0.6 mm 3 mps 729 mmHg 83%
    19:00 +5°C° 0.6 mm 3 mps 729 mmHg 86%
    20:00 +5°C° 0.6 mm 3 mps 729 mmHg 89%
    21:00 +5°C° 0.6 mm 3 mps 729 mmHg 90%
    22:00 +4°C° 0.6 mm 3 mps 728 mmHg 91%
    23:00 +4°C° 0.6 mm 3 mps 728 mmHg 92%
    Show more